This is the latest recevied weather packets stored in our database for station/object KD4EG. If no packets are shown the sender has not sent any weather packets the latest 10 day(s).
| Time | Temp. | Humidity | Pressure | Rain* | Wind** | Luminosity | Snow |
|---|---|---|---|---|---|---|---|
| 1788486822 | 28.33° C | 74% | 1019.3 hPa | 0 mm | - | 0 W/m² | - |
| 1788486520 | 28.33° C | 74% | 1019.4 hPa | 0 mm | - | 0 W/m² | - |
| 1788486215 | 28.33° C | 76% | 1019.3 hPa | 0 mm | - | 0 W/m² | - |
| 1788485911 | 28.33° C | 76% | 1019.2 hPa | 0 mm | - | 0 W/m² | - |
| 1788485607 | 28.33° C | 76% | 1019 hPa | 0 mm | - | 0 W/m² | - |
| 1788485303 | 28.33° C | 75% | 1019.3 hPa | 0 mm | - | 0 W/m² | - |
| 1788485003 | 28.33° C | 75% | 1019.3 hPa | 0 mm | - | 0 W/m² | - |
| 1788484702 | 28.89° C | 75% | 1019.3 hPa | 0 mm | - | 0 W/m² | - |
| 1788484397 | 28.89° C | 73% | 1019.2 hPa | 0 mm | - | 0 W/m² | - |
| 1788484091 | 28.89° C | 72% | 1019 hPa | 0 mm | - | 0 W/m² | - |
| 1788483789 | 28.89° C | 72% | 1019.3 hPa | 0 mm | - | 0 W/m² | - |
| 1788483483 | 28.89° C | 72% | 1019.2 hPa | 0 mm | - | 0 W/m² | - |
| 1788483179 | 29.44° C | 72% | 1019.2 hPa | 0 mm | - | 0 W/m² | - |
| 1788482874 | 29.44° C | 72% | 1019.3 hPa | 0 mm | - | 0 W/m² | - |
| 1788482570 | 29.44° C | 72% | 1019 hPa | 0 mm | - | 0 W/m² | - |
| 1788482264 | 29.44° C | 72% | 1019.3 hPa | 0 mm | - | 0 W/m² | - |
| 1788481961 | 29.44° C | 73% | 1019 hPa | 0 mm | - | 0 W/m² | - |
| 1788481656 | 29.44° C | 72% | 1018.9 hPa | 0 mm | - | 0 W/m² | - |
| 1788481353 | 30° C | 70% | 1019 hPa | 0 mm | - | 0 W/m² | - |
| 1788481052 | 30° C | 70% | 1018.4 hPa | 0 mm | - | 0 W/m² | - |
| 1788480746 | 30° C | 70% | 1018.6 hPa | 0 mm | - | 0 W/m² | - |
| 1788480441 | 30° C | 71% | 1018.5 hPa | 0 mm | - | 0 W/m² | - |
| 1788480136 | 30.56° C | 70% | 1018.5 hPa | 0 mm | - | 0 W/m² | - |
| 1788479835 | 31.11° C | 67% | 1018.6 hPa | 0 mm | - | 0 W/m² | - |
| 1788479532 | 31.67° C | 65% | 1018.2 hPa | 0 mm | - | 0 W/m² | - |
* Rain latest hour (hover to see other rain measurements)
** Current wind speed in m/s (hover to see current wind gust speed)